#timestamp,LO_Frequency,Hit,StdDev 
1617502215.0,286047011.5,P
1617502215.9,286047011.5,P
1617502235.8,286047012.2,P
1617502255.6,286047011.2,Y
1617502275.5,286047000.6,P
1617502295.3,286047000.1,N
1617502315.1,286047001.5,N
1617502335.9,286047001.5,N
1617502355.7,286046999.8,N
1617502375.5,286047002.2,N
1617502395.4,286047002.0,N
1617502415.2,286047005.0,N
1617502435.0,286047006.3,N
1617502436.0,286047006.3,N
1617502455.8,286047008.8,N
1617502475.6,286047008.7,N
1617502495.5,286047006.2,N
1617502515.3,286047004.6,N
1617502535.1,286047007.3,N
1617502555.9,286047007.6,N
1617502575.7,286047006.7,N
1617502595.6,286047004.5,N
1617502615.4,286047006.0,N
1617502635.2,286047005.7,N
1617502655.1,286047004.9,N
1617502656.0,286047004.9,N
1617502675.8,286047004.7,N
1617502695.6,286047006.4,N
1617502715.5,286047008.3,N
1617502735.3,286047007.9,N
1617502755.2,286047008.7,Y
1617502775.9,286047001.9,P
1617502795.7,286047002.2,N
1617502815.6,286046999.8,N
1617502835.4,286047002.1,N
1617502855.2,286047001.5,N
1617502875.1,286047001.6,N
1617502876.0,286047001.6,N
1617502895.8,286047002.8,N
1617502915.7,286047002.0,N
1617502935.5,286047004.2,Y
1617502955.3,286047000.0,P
1617502975.2,286047002.8,N
1617502995.0,286047002.4,N
1617502995.9,286047002.4,N
1617503015.8,286047002.8,N
1617503035.6,286047000.3,N
1617503055.4,286047004.4,Y
1617503075.3,286047000.1,P
1617503095.1,286047000.9,N
1617503115.8,286047000.3,N
1617503135.7,286047000.3,N
1617503155.5,286047000.1,N
1617503175.4,286047002.3,Y
1617503195.2,286046999.7,P
1617503215.0,286047000.3,N
1617503215.9,286047000.3,N
1617503235.8,286047000.1,N
1617503255.6,286047000.0,N
1617503275.5,286046998.5,Y
1617503295.3,286046999.2,P
1617503315.1,286046999.1,N
1617503335.9,286046999.0,N
1617503355.7,286047000.8,N
1617503375.5,286047000.8,N
1617503395.4,286047000.2,N
1617503415.2,286046999.7,N
1617503435.1,286047005.5,Y
1617503436.0,286047005.5,P
1617503455.8,286047007.2,N
1617503475.6,286047010.2,P
1617503495.5,286047010.2,N
1617503515.3,286047007.3,N
1617503535.1,286047005.0,N
1617503555.9,286047009.0,N
1617503575.7,286047007.3,N
1617503595.6,286047007.6,N
1617503615.4,286047007.3,N
1617503635.2,286047005.9,N
1617503655.1,286047002.8,N
1617503656.0,286047002.8,N
1617503675.8,286047001.9,N
1617503695.7,286047002.0,N
1617503715.5,286047001.8,N
1617503735.3,286047000.2,N
1617503755.2,286047000.1,N
1617503775.9,286046999.9,N
1617503795.7,286047000.4,N
1617503815.6,286047001.1,N
1617503835.4,286047001.1,N
1617503855.3,286047001.0,N
1617503875.1,286046998.1,N
1617503876.0,286046998.1,N
1617503895.8,286046998.4,N
1617503915.7,286046999.3,N
1617503935.5,286046998.6,N
1617503955.3,286047000.7,N
1617503975.2,286047000.2,N
1617503995.0,286047000.6,N
1617503995.9,286047000.6,N
1617504015.8,286046998.9,N
1617504035.6,286046999.2,N
1617504055.4,286046998.3,N
1617504075.3,286046996.8,N
1617504095.1,286046996.7,N
1617504115.8,286046997.7,N
1617504135.7,286046999.5,N
1617504155.5,286046999.3,N
1617504175.4,286046999.5,N
1617504195.2,286046996.6,N
1617504215.0,286046996.5,N
1617504215.9,286046996.5,N
1617504235.8,286046997.1,N
1617504255.6,286046999.2,N
1617504275.5,286046999.9,N
1617504295.3,286047000.7,N
1617504315.1,286047001.2,N
1617504335.9,286046998.5,N
1617504355.7,286047000.1,N
1617504375.5,286046999.9,N
1617504395.4,286047001.3,N
1617504415.2,286047004.1,N
1617504435.1,286047001.3,N
1617504436.0,286047001.3,N
1617504455.8,286047004.0,N
1617504475.6,286047003.5,N
1617504495.5,286047001.8,N
1617504515.3,286047005.5,N
1617504535.1,286047003.9,N
1617504555.9,286047003.1,N
1617504575.7,286047006.0,N
1617504595.6,286047006.0,N
1617504615.4,286047005.7,N
1617504635.2,286047005.7,N
1617504655.1,286047005.7,N
1617504656.0,286047005.7,N
1617504675.8,286047001.5,N
1617504695.6,286046999.7,N
1617504715.5,286047001.8,N
1617504735.3,286047002.1,N
1617504755.2,286047004.3,N
1617504775.9,286047005.8,N
1617504795.7,286047007.1,N
1617504815.6,286047006.9,N
1617504835.4,286047009.2,Y
1617504855.3,286047007.1,P
1617504875.1,286047007.6,P
1617504876.0,286047007.6,P
1617504895.8,286047005.6,N
1617504915.7,286047001.4,N
1617504935